Location: Warszawa
(52.2500°N, 21.0000°E)
Time: 08:31:57
(UTC+02:00)

Gurwin Techsat 1B - Pass Details

Date: 04 May 2024
Orbit: 811 x 812 km, 98.9° (Epoch: 20 May)

Event Time Altitude Azimuth Distance (km) Brightness Sun altitude
Rises 03:30:03 0° 21° (NNE) 3,349 13.2 -11.7°
Reaches altitude 10° 03:32:39 10° 32° (NNE) 2,412 12.5 -11.4°
Maximum altitude 03:37:25 33° 95° (E) 1,350 10.2 -10.9°
Drops below altitude 10° 03:42:10 10° 159° (SSE) 2,395 10.8 -10.4°
Sets 03:44:43 0° 169° (S) 3,322 11.5 -10.1°
